Terminal Aerodrome Forecast
Issued by NWS

Home | Current Version | Previous Version | Text Only | Print | Product List | Glossary On
Versions: 1 2 3 4 5 6 7 8 9 10 11 12 13 14 15 16 17 18
000
FTUS45 KRIW 252325
TAFPNA
TAF
KPNA 252325Z 2600/2624 VRB10G15KT 6SM -SHRA VCTS SCT035CB BKN045
     FM260100 VRB07KT P6SM VCSH BKN045
     FM260400 VRB04KT P6SM SCT045 BKN060
     FM261900 28008KT P6SM VCTS SCT035CB BKN050
      AMD LTD TO CLD VIS AND WIND=

USA.gov is the U.S. government's official web portal to all federal, state and local government web resources and services.